Airfield :
LOGIN :

Register | Disclaimer

   EN    FR    IT 

 










Legend :    VFR   Marginal VFR   IFR   Intensive IFR   Very Intensive IFR
Visi :
Ceiling :
>= 8 km
>= 3000ft
5 to 8 km
1000 to 3000 ft
1500m to 5 km
500 to 1000 ft
800 to 1500m
200 to 500 ft
< 800m
< 200 ft
Symbols :   Thunderstorms  Fog  Heavy snow  Heavy precipitations  Wind > 20 kt
SIGMETs :     Misc.  Thunderstorms  Icing  Turbulence  Mountain Waves  Volcanic Ashes







- Airport Elevation : 11 ft


LPAR - Alverca Air Base

EXPIRED METARs :
  • 181600Z 36012KT 9999 SCT030 23/13 Q1008

TAF TAF LPAR
Valid from the 18 at 15:00 until the 19 at 00:00 UTC


181407Z 1815/1824 35010KT 9999 SCT030
PROB40
TEMPO 1815/1819 36012G25KT 7000 -SHRA SCT014 BKN025
No reported NOTAMs for that airfield.
1 SIGMET reported for the Lisboa FIR (LPPC) :
 
Embedded thunderstorms
LPPC SIGMET 5 VALID 181735/182135 LPPT
LPPC LISBON FIR EMBD TS OBS E OF LINE N3740 W00800 - N3900 W00755 - N3950 W00835 TOP FL320 MOV SW 25KT NC=



MET'MAP, your aeronautical weather chart ! - Copyright ORBIFLY December 2007 - Disclaimer

ORBIFLY MET'MAP TEAM :

Programming & Development : Alexandra Zaïnal
Concept & Development : Baudouin d'Aumeries
Co-Development & Prog : Marc-Olivier Méhu
Technical & hardware support : Manuel Goepfert

Contact : metmap@orbifly.com




SOURCES & CREDITS :

   NOAA